ECHOSTAR 23 (42070 NORAD) Tracking and Keplerian Element Data

This shows tracking and keplerian element data for the satellite.

Feedback or suggestion? Click here.




ElementValue
Catalog42070
NameECHOSTAR 23
Epoch Orbit2894
Epoch Day34.87596873
Epoch Year2025
RAAN93.2908
Inclination0.0194
Eccentricity0.0002151
Argument of Perigee218.7367
Mean Anonmoly27.6862
Mean Motion1.00269976
Decay Rate-5.3E-07
L11 42070U 17014A 25034.87596873 -.00000053 00000+0 00000+0 0 9990
L22 42070 0.0194 93.2908 0002151 218.7367 27.6862 1.00269976 28947



Live tracking and technical data element details for ECHOSTAR 23 (NORAD 42070). ECHOSTAR 23 can be tracked NOW for your location showing map with azimuth and elevation plus other details from your city location.







IsCatalogInMostPopularTable: catalog: 42070, numindb: 936
Update: records affected: 1



GetName: 42070 ECHOSTAR 23

Hit Count: updated at: Thu, 19 Jun 2025 10:17:11 GMT